KBGRKBHB

Guest
Details From KBGR - Bangor Intl
To KBHB - Hancock Co Bar Harbor
Flight Number -
Tags Generated
Created
Modified
Stats Distance 30 nm / 56 km
Max Altitude 0 ft / 0 m
Waypoints 2
Social Downloads 1
Likes 0
Share VATSIM

Download

Looking for another format? Having issues loading an existing format? Contact us
Advertisement - Login to hide

Notes

Generated

Route

KBGR KBHB

ID Type Via Altitude Latitude Longitude Leg Dist Tot Dist Heading (true) Name
O KBGR APT - 0 ft / 0 m 44.81837˚ -68.84393˚ - 0 nm - -
O KBHB APT - 0 ft / 0 m 44.45267˚ -68.36220˚ 30 nm 30 nm 137° / 137° Hancock Co Bar Harbor

Altitude Profile

Advertisement - Login to hide

KBGR

Details ICAO KBGR (BGR)
Name BANGOR INTL
Region United States
Timezone America/New_York (UTC-5.0)
Stats Elevation 192 ft / 59 m (AMSL)
Location 44.807437° -68.828126°
Runways 1
Magnetic Variation 16.153° W

METAR

KBGR 130404Z 02009KT 4SM -FZRA BR BKN003 OVC007 00/M01 A2920 RMK AO2 PLE0358 PRESFR P0000 I1000 T00001006 $

Decode

TAF

TAF AMD KBGR 130401Z 1304/1324 08011KT 3SM -FZRAPL BR OVC008 FM130600 10011KT 5SM -RA OVC004 FM131100 22008KT 6SM -SHRASN OVC012 FM131400 23008KT 3SM -SHSN OVC021 FM131800 28011KT P6SM BKN030

Decode

Departure Runways

ID Width Length Bearing (true) Bearing (mag) Surface Threshold Offset Overrun Length
15 200 ft / 61 m 11,430 ft / 3,484 m 134.27° 150.42° Asphalt 0 ft / 0 m 1,000 ft / 305 m
33 200 ft / 61 m 11,430 ft / 3,484 m 314.29° 330.44° Asphalt 0 ft / 0 m 1,000 ft / 305 m

KBHB

Details ICAO KBHB (BHB)
Name Hancock Co Bar Harbor
Region United States
Timezone America/New_York (UTC-5.0)
Stats Elevation 83 ft / 25 m (AMSL)
Location 44.449530° -68.361037°
Runways 2
Magnetic Variation 16.196° W

METAR

KBHB 130356Z AUTO 16015KT 7SM -RA BKN009 BKN013 OVC019 08/08 A2920 RMK AO2 CIG 007V011 SLP893 T00830078 PNO $

Decode

TAF

TAF AMD KBHB 130335Z 1304/1324 VRB03KT 3SM -RA BR OVC007 FM131100 21009KT 6SM -SHRASN OVC015 FM131400 23012KT 3SM -SHSN OVC021 FM132000 26015KT P6SM BKN029

Decode

Destination Runways

ID Width Length Bearing (true) Bearing (mag) Surface Threshold Offset Overrun Length
04 98 ft / 30 m 5,205 ft / 1,586 m 24.54° 40.74° Asphalt 0 ft / 0 m 0 ft / 0 m
17 75 ft / 23 m 3,356 ft / 1,023 m 149.60° 165.80° Asphalt 682 ft / 208 m 0 ft / 0 m
22 98 ft / 30 m 5,205 ft / 1,586 m 204.55° 220.75° Asphalt 0 ft / 0 m 0 ft / 0 m
35 75 ft / 23 m 3,356 ft / 1,023 m 329.60° 345.80° Asphalt 112 ft / 34 m 0 ft / 0 m

Approach Navaids

Runway Type Ident Frequency Range Bearing (true) Bearing (mag) Slope Elevation
22 Localiser IBHB 108.30 MHz 18 nm / 33 km 204.56° 220.76° - 62 ft / 19 m (AMSL)
22 Glidescope IBHB 108.30 MHz 10 nm / 19 km 204.54° 220.74° 3.00° 72 ft / 22 m (AMSL)
22 DME IBHB 108.30 MHz 18 nm / 33 km - - - 76 ft / 23 m (AMSL)

Popular Alternatives